CAPE
1090 1188 1788 2117 1908 1803 1763 1685 1703 1819 1970 2092 2121 2165 2159 2047 1964 1878 1801 1850 1775 1544 1431 1363 1224 1104 971 790 616 539 531 572 592 560 642 692 896 1282 1046 1027 872 572 1165
1267 1219 1717 2059 1926 1870 1820 1741 1733 1848 1893 1883 2014 2033 1966 1900 1893 1789 1614 1533 1482 1300 1370 1404 1309 1240 914 663 609 599 549 555 546 709 764 745 971 1359 1195 952 1021 813 1105
1313 1335 1559 1900 1882 1943 1965 1912 1846 1827 1791 1651 1712 1860 1801 1814 1832 1886 1848 1792 1475 1248 1194 1322 1524 1416 1085 911 760 651 579 577 636 815 1043 625 1105 1467 1419 1027 991 1027 1111
1449 1351 1532 1690 1781 1929 1931 1946 1945 1898 1984 1944 1834 1775 1755 1747 1618 1568 1548 1617 1535 1441 1583 1643 1517 1370 1136 922 795 687 628 710 790 901 293 1080 1374 1911 1560 1227 979 1023 919
1606 1363 1672 1570 1643 1857 1917 1966 1987 2062 2004 1928 1752 1839 1985 1953 1592 1406 1335 1257 1211 1158 1204 1278 1245 953 754 674 640 584 548 689 750 496 361 422 1002 1757 1722 1397 1196 967 943
1538 1941 1253 1423 1552 1781 1900 1878 1869 1879 1594 1392 1382 1560 1758 1563 1408 1221 1165 1069 1087 1195 1277 1291 1243 1028 813 743 713 652 654 685 610 171 547 1014 798 1374 1465 1873 1356 942 883
2244 1759 1571 1262 1454 1716 1864 1783 1570 1355 1140 1087 1145 1184 1475 1165 803 459 464 300 284 384 510 560 499 334 297 348 362 340 412 367 256 374 893 647 1029 1312 1271 1229 1720 1074 817
1805 1557 1347 1057 1109 1204 1256 1055 871 840 812 782 845 879 463 287 214 113 28 1 0 0 0 0 0 0 0 0 0 0 0 2 4 116 420 49 692 1574 1222 1369 1523 1501 911
1599 1365 1157 930 654 451 375 352 345 376 421 425 252 139 64 34 20 10 0 0 0 0 0 0 0 0 0 0 0 0 0 0 0 6 0 0 273 772 1326 1539 1624 1674 1387
1077 1040 965 707 443 335 70 53 41 19 14 4 0 0 0 0 0 0 0 0 0 0 0 0 0 0 0 0 0 0 0 0 0 0 0 0 8 281 803 1182 1388 1622 1680
987 856 1052 891 596 361 25 0 0 0 0 0 0 0 0 0 0 0 0 0 0 0 0 0 0 0 0 0 0 0 0 0 0 0 0 0 42 320 907 1029 965 772 937
987 1090 1131 904 651 306 9 0 0 0 0 0 0 0 0 0 0 0 0 0 0 0 0 0 0 0 0 0 0 0 0 0 0 0 0 0 9 15 68 184 191 200 453
1127 1475 1181 832 576 353 13 0 0 0 0 0 0 0 0 0 0 0 0 0 0 0 0 0 0 0 0 0 0 0 0 0 0 0 0 0 6 21 17 8 10 106 139
1199 1428 1072 850 502 394 0 0 0 0 0 0 0 0 0 0 0 0 0 0 0 0 0 0 0 0 0 0 0 0 0 0 0 0 0 0 0 4 7 8 8 12 28
1548 1245 1010 686 459 245 0 0 0 0 0 0 0 0 0 0 0 0 0 0 0 0 0 0 0 0 0 0 0 0 0 0 0 0 0 0 0 0 3 9 11 16 42
1745 1275 685 497 280 26 0 0 0 0 0 0 0 0 0 0 0 0 0 0 0 0 0 0 0 0 0 0 0 0 0 0 0 0 0 0 0 0 0 7 8 19 26
1756 1575 664 312 156 0 0 0 0 0 0 0 0 0 0 0 0 0 0 0 0 0 0 0 0 0 0 0 0 0 0 0 0 0 0 0 0 0 0 0 3 10 11
1611 1314 629 126 68 0 0 0 0 0 0 0 0 0 0 0 0 0 0 0 0 0 0 0 0 0 0 0 0 0 0 0 0 0 0 0 0 0 0 0 0 0 9
1536 1303 504 68 0 0 0 0 0 0 0 0 0 0 0 0 0 0 0 0 0 0 0 0 0 0 0 0 0 0 0 0 0 0 0 0 0 0 0 0 0 0 0
1015 1374 442 47 0 0 0 0 0 0 0 0 0 0 0 0 0 0 0 0 0 0 0 0 0 0 0 0 0 0 0 0 0 0 0 0 0 0 0 0 0 0 0
995 1400 458 20 0 0 0 0 0 0 0 0 0 0 0 0 0 0 0 0 0 0 0 0 0 0 0 0 0 0 0 0 0 0 0 0 0 0 0 0 0 0 0
1219 1465 540 3 0 0 0 0 0 0 0 0 0 0 0 0 0 0 0 0 0 0 0 0 0 0 0 0 0 0 0 0 0 0 0 0 0 0 0 0 0 0 0
922 1518 522 42 0 0 0 0 0 0 0 0 0 0 0 0 0 0 0 0 0 0 0 0 0 0 0 0 0 0 0 0 0 0 0 0 0 0 0 0 0 0 0
1101 1496 492 57 0 0 0 0 0 0 0 0 0 0 0 0 0 0 0 0 0 0 0 0 0 0 0 0 0 0 0 0 0 0 0 0 0 0 0 0 0 0 0
1315 1352 461 65 0 0 0 0 0 0 0 0 0 0 0 0 0 0 0 0 0 0 0 0 0 0 0 0 0 0 0 0 0 0 0 0 0 0 0 0 0 0 0
1002 1042 369 40 0 0 0 0 0 0 0 0 0 0 0 0 0 0 0 0 0 0 0 0 0 0 0 0 0 0 0 0 0 0 0 0 0 0 0 0 0 0 0
CIN
-441 -504 -336 -210 -204 -197 -178 -164 -129 -67 -16 -1 -2 -0 -0 -0 -0 -0 -0 -0 -0 -0 -0 -0 -3 -6 -18 -34 -50 -72 -84 -79 -85 -97 -77 -58 -35 -18 -24 -22 -21 -37 -0
-462 -454 -324 -207 -194 -178 -155 -129 -99 -48 -12 -2 -0 -0 -0 -0 -0 -0 -0 -0 -0 -0 -0 -0 -0 -1 -24 -58 -50 -53 -69 -77 -95 -102 -86 -71 -42 -26 -41 -41 -24 -22 -0
-424 -401 -326 -210 -171 -143 -108 -75 -50 -23 -13 -9 -1 -0 -0 -0 -0 -0 -0 -0 -1 -1 -0 -0 -0 -0 -8 -24 -41 -43 -59 -73 -97 -119 -91 -87 -10 -7 -45 -39 -27 -13 -0
-360 -353 -289 -223 -167 -116 -88 -48 -23 -11 -0 -0 -0 -0 -0 -0 -0 -0 -0 -1 -0 -0 -0 -0 -0 -0 -4 -22 -39 -46 -53 -67 -101 -121 -174 -8 -8 -6 -24 -30 -28 -20 -28
-277 -291 -230 -204 -152 -95 -58 -30 -12 -0 -2 -2 -4 -4 -3 -2 -2 -0 -1 -3 -3 -1 -0 -0 -0 -9 -18 -29 -51 -66 -69 -75 -108 -161 -92 -33 -55 -16 -16 -20 -14 -18 -24
-251 -180 -315 -202 -142 -82 -39 -38 -26 -10 -21 -34 -15 -7 -2 -0 -0 -0 -0 -1 -1 -0 -0 -0 -0 -0 -10 -17 -15 -33 -46 -74 -117 -123 -38 -63 -88 -20 -29 -1 -9 -22 -25
-158 -223 -205 -214 -145 -81 -42 -50 -60 -69 -75 -55 -32 -16 -1 -1 -16 -60 -59 -109 -111 -67 -44 -31 -31 -54 -66 -66 -55 -66 -62 -99 -140 -96 -72 -142 -55 -27 -29 -13 -0 -9 -31
-199 -211 -217 -241 -205 -156 -116 -141 -148 -130 -91 -79 -39 -24 -75 -124 -145 -209 -319 -87 -0 -0 -0 -0 -0 -0 -0 -0 -0 -0 -0 -135 -96 -91 -76 -266 -72 -10 -22 -0 -0 -0 -15
-188 -216 -234 -241 -289 -342 -349 -308 -263 -207 -156 -137 -170 -196 -216 -242 -270 -334 -0 -0 -0 -0 -0 -0 -0 -0 -0 -0 -0 -0 -0 -0 -0 -3 -0 -0 -96 -46 -5 -0 -0 -0 -0
-275 -264 -261 -279 -342 -352 -461 -431 -406 -368 -332 -314 -102 -0 -0 -0 -0 -0 -0 -0 -0 -0 -0 -0 -0 -0 -0 -0 -0 -0 -0 -0 -0 -0 -0 -0 -6 -56 -11 -4 -0 -0 -0
-266 -270 -221 -226 -274 -322 -486 -0 -0 -0 -0 -0 -0 -0 -0 -0 -0 -0 -0 -0 -0 -0 -0 -0 -0 -0 -0 -0 -0 -0 -0 -0 -0 -0 -0 -0 -101 -33 -0 -0 -0 -1 -3
-257 -215 -194 -213 -248 -318 -509 -0 -0 -0 -0 -0 -0 -0 -0 -0 -0 -0 -0 -0 -0 -0 -0 -0 -0 -0 -0 -0 -0 -0 -0 -0 -0 -0 -0 -0 -0 -18 -112 -56 -76 -71 -33
-209 -131 -178 -225 -252 -292 -499 -0 -0 -0 -0 -0 -0 -0 -0 -0 -0 -0 -0 -0 -0 -0 -0 -0 -0 -0 -0 -0 -0 -0 -0 -0 -0 -0 -0 -0 -1 -0 -0 -0 -0 -94 -96
-156 -117 -158 -188 -268 -242 -0 -0 -0 -0 -0 -0 -0 -0 -0 -0 -0 -0 -0 -0 -0 -0 -0 -0 -0 -0 -0 -0 -0 -0 -0 -0 -0 -0 -0 -0 -0 -0 -0 -0 -0 -0 -0
-99 -121 -132 -190 -266 -264 -0 -0 -0 -0 -0 -0 -0 -0 -0 -0 -0 -0 -0 -0 -0 -0 -0 -0 -0 -0 -0 -0 -0 -0 -0 -0 -0 -0 -0 -0 -0 -0 -0 -0 -0 -0 -0
-85 -144 -190 -202 -284 -375 -0 -0 -0 -0 -0 -0 -0 -0 -0 -0 -0 -0 -0 -0 -0 -0 -0 -0 -0 -0 -0 -0 -0 -0 -0 -0 -0 -0 -0 -0 -0 -0 -0 -0 -0 -0 -0
-76 -81 -242 -279 -316 -6 -0 -0 -0 -0 -0 -0 -0 -0 -0 -0 -0 -0 -0 -0 -0 -0 -0 -0 -0 -0 -0 -0 -0 -0 -0 -0 -0 -0 -0 -0 -0 -0 -0 -0 -0 -0 -0
-77 -62 -227 -329 -371 -0 -0 -0 -0 -0 -0 -0 -0 -0 -0 -0 -0 -0 -0 -0 -0 -0 -0 -0 -0 -0 -0 -0 -0 -0 -0 -0 -0 -0 -0 -0 -0 -0 -0 -0 -0 -0 -0
-52 -75 -244 -418 -125 -0 -0 -0 -0 -0 -0 -0 -0 -0 -0 -0 -0 -0 -0 -0 -0 -0 -0 -0 -0 -0 -0 -0 -0 -0 -0 -0 -0 -0 -0 -0 -0 -0 -0 -0 -0 -0 -0
-60 -115 -266 -475 -0 -0 -0 -0 -0 -0 -0 -0 -0 -0 -0 -0 -0 -0 -0 -0 -0 -0 -0 -0 -0 -0 -0 -0 -0 -0 -0 -0 -0 -0 -0 -0 -0 -0 -0 -0 -0 -0 -0
-56 -137 -291 -548 -0 -0 -0 -0 -0 -0 -0 -0 -0 -0 -0 -0 -0 -0 -0 -0 -0 -0 -0 -0 -0 -0 -0 -0 -0 -0 -0 -0 -0 -0 -0 -0 -0 -0 -0 -0 -0 -0 -0
-76 -124 -191 -343 -0 -0 -0 -0 -0 -0 -0 -0 -0 -0 -0 -0 -0 -0 -0 -0 -0 -0 -0 -0 -0 -0 -0 -0 -0 -0 -0 -0 -0 -0 -0 -0 -0 -0 -0 -0 -0 -0 -0
-79 -106 -266 -412 -0 -0 -0 -0 -0 -0 -0 -0 -0 -0 -0 -0 -0 -0 -0 -0 -0 -0 -0 -0 -0 -0 -0 -0 -0 -0 -0 -0 -0 -0 -0 -0 -0 -0 -0 -0 -0 -0 -0
-77 -61 -243 -449 -0 -0 -0 -0 -0 -0 -0 -0 -0 -0 -0 -0 -0 -0 -0 -0 -0 -0 -0 -0 -0 -0 -0 -0 -0 -0 -0 -0 -0 -0 -0 -0 -0 -0 -0 -0 -0 -0 -0
-38 -69 -161 -374 -0 -0 -0 -0 -0 -0 -0 -0 -0 -0 -0 -0 -0 -0 -0 -0 -0 -0 -0 -0 -0 -0 -0 -0 -0 -0 -0 -0 -0 -0 -0 -0 -0 -0 -0 -0 -0 -0 -0
-33 -53 -98 -270 -0 -0 -0 -0 -0 -0 -0 -0 -0 -0 -0 -0 -0 -0 -0 -0 -0 -0 -0 -0 -0 -0 -0 -0 -0 -0 -0 -0 -0 -0 -0 -0 -0 -0 -0 -0 -0 -0 -0
Wind_Speed
15 17 18 16 14 14 13 12 12 11 10 10 10 10 9 9 8 7 7 7 7 7 7 7 7 7 6 6 7 8 8 7 6 5 3 3 3 6 7 10 12 11 10
20 17 15 16 15 15 14 12 12 11 11 10 10 9 9 9 8 7 7 6 5 5 5 5 5 5 5 6 7 7 6 6 6 8 5 3 2 6 9 8 10 9 10
18 16 16 13 14 14 14 13 12 11 12 10 10 9 9 8 8 7 6 5 4 4 3 3 4 5 5 6 6 6 6 6 8 11 8 5 6 4 11 8 7 8 8
17 13 14 12 14 14 14 13 12 11 11 10 9 8 8 8 7 6 6 5 4 2 3 5 6 5 5 5 5 5 6 8 12 12 8 3 8 9 9 7 6 7 8
15 14 14 12 13 14 14 13 12 12 11 11 10 10 10 10 9 7 5 3 3 5 3 3 5 5 5 5 5 5 6 9 13 14 9 6 7 8 9 7 4 5 8
14 15 16 11 12 13 14 14 13 12 11 10 9 8 10 9 9 8 6 7 7 8 7 5 5 5 5 4 5 5 6 10 11 11 10 14 11 8 11 8 5 5 5
14 15 15 11 11 13 13 12 12 12 10 9 8 8 9 10 9 9 10 10 10 10 10 9 8 7 6 6 5 5 7 10 9 11 11 12 7 10 11 8 5 2 3
12 13 12 12 11 12 11 11 11 11 8 9 9 11 10 10 11 11 11 11 11 11 10 10 9 8 7 6 6 7 8 10 10 10 9 9 12 12 10 7 6 2 1
11 12 10 9 10 11 11 11 11 11 10 11 12 12 12 11 11 11 11 11 11 11 10 9 8 6 5 4 4 5 8 11 8 7 12 7 13 14 15 11 9 6 1
8 10 11 9 9 9 8 12 13 12 12 12 12 12 12 12 11 11 12 10 9 9 9 7 5 3 0 1 2 4 9 10 7 9 8 6 12 13 12 11 13 8 4
8 9 11 12 11 11 10 10 13 15 13 12 10 11 11 7 7 10 10 8 7 6 5 4 4 4 5 7 8 8 8 4 7 9 7 11 10 14 15 17 14 15 14
11 13 12 12 12 12 10 9 9 9 7 7 8 7 6 5 3 10 8 8 7 7 6 5 6 7 6 4 4 7 1 4 9 9 7 18 18 16 17 16 18 16 16
12 11 13 12 12 12 10 8 6 6 6 6 7 8 6 6 4 6 4 4 4 8 4 5 4 1 7 5 5 5 5 5 7 7 11 19 15 16 17 17 17 18 16
13 13 14 14 11 11 9 8 7 7 6 5 5 6 5 4 4 4 4 5 3 3 1 2 4 4 5 4 4 3 4 5 8 6 10 14 16 14 14 15 15 15 19
15 14 13 13 12 9 9 7 6 5 5 5 5 5 5 5 4 1 3 1 4 3 3 3 4 3 5 5 3 3 4 3 12 7 5 13 15 15 16 15 14 16 20
18 19 13 12 12 8 7 7 5 5 6 6 5 5 6 5 5 5 3 3 3 3 3 4 2 4 4 5 4 6 6 6 7 10 7 6 14 16 17 15 15 18 19
16 20 19 16 15 11 9 7 6 6 7 5 5 6 5 6 5 6 4 4 4 3 2 5 4 1 5 4 6 5 5 6 6 7 7 7 7 13 17 17 17 16 17
20 22 20 16 17 14 12 8 7 6 6 5 6 4 5 6 6 5 4 4 4 4 3 2 1 3 3 4 4 4 5 6 7 7 6 5 3 6 12 16 16 17 19
20 23 23 19 18 16 11 9 7 8 6 6 6 5 6 7 7 5 5 5 3 3 2 3 2 1 2 4 6 4 4 5 5 5 7 6 6 6 6 12 16 17 19
16 23 23 17 17 15 8 8 7 8 5 6 6 6 6 5 5 5 5 5 3 5 3 2 4 2 2 2 6 5 4 4 5 5 6 5 6 6 5 6 5 9 18
7 20 23 22 19 14 9 10 9 9 6 7 7 10 6 5 5 6 5 5 3 4 5 3 1 3 4 4 3 4 4 3 4 5 6 5 5 6 6 6 4 4 8
14 18 18 19 19 16 11 10 7 9 6 5 7 7 6 5 5 5 6 5 6 5 4 1 1 2 3 3 2 4 4 3 3 4 6 6 5 6 5 7 6 7 7
15 20 21 19 16 14 12 9 8 7 6 5 8 6 5 5 5 7 5 5 5 5 4 3 3 4 3 2 4 2 1 2 7 3 7 5 6 5 5 6 6 6 7
9 14 19 20 20 17 14 12 12 10 10 8 7 7 6 6 6 6 6 6 5 5 5 4 4 3 3 5 3 4 6 4 3 4 3 4 5 6 6 4 4 6 6
7 7 16 17 17 18 17 12 11 11 7 8 8 11 7 5 6 7 6 6 6 6 6 7 5 6 5 5 4 3 3 4 4 4 4 3 4 3 4 5 4 5 6
4 4 10 11 14 15 15 10 15 12 11 11 10 9 7 5 5 6 7 6 8 7 6 5 6 7 6 5 4 4 4 3 2 3 3 2 3 3 4 4 5 5 5
Wind_Direction
125 136 135 140 142 136 133 127 120 116 115 116 112 110 108 105 104 99 96 93 95 96 100 101 96 86 71 54 42 39 34 24 10 348 329 12 71 85 57 29 11 54 48
129 139 134 142 144 140 138 132 126 124 122 124 118 113 110 108 106 110 106 107 108 110 109 108 99 93 79 63 44 30 23 10 333 294 292 251 153 107 91 52 40 44 46
126 132 142 138 144 141 138 135 133 133 127 127 125 122 119 116 109 106 106 141 127 122 119 125 122 89 74 59 46 24 5 341 302 290 289 273 123 118 97 74 53 51 49
125 141 140 139 143 140 137 137 139 142 135 134 135 137 135 130 119 109 93 75 67 96 89 97 88 75 68 61 51 26 353 327 305 310 301 124 113 83 91 79 59 57 35
134 155 128 134 138 137 136 141 146 152 147 147 161 166 171 153 139 121 98 75 50 69 76 79 93 86 60 37 29 18 348 320 313 309 290 114 98 75 74 52 78 72 54
153 121 127 133 138 142 149 156 163 166 158 146 150 131 113 120 119 111 95 78 66 65 80 81 77 63 59 33 5 0 334 312 311 288 283 70 67 70 62 38 45 56 67
102 118 126 124 137 137 136 132 130 121 111 105 105 111 106 108 110 107 101 94 88 80 79 74 70 60 46 33 7 345 321 309 301 293 68 65 57 56 51 29 19 26 74
113 121 124 118 109 105 106 103 103 98 109 118 115 108 113 115 112 107 102 99 95 91 86 86 80 74 62 45 25 353 330 310 309 307 77 66 35 44 45 24 2 318 39
115 126 119 127 115 98 98 104 111 119 119 116 117 117 115 111 109 109 106 105 103 98 90 82 78 74 70 56 31 338 312 306 306 360 61 38 27 39 34 29 14 350 291
112 120 137 137 136 129 135 123 123 122 122 118 121 123 122 118 122 121 113 101 97 100 104 100 102 99 87 269 254 276 286 308 277 68 49 23 30 42 32 29 31 17 335
143 158 158 155 152 148 139 136 127 132 130 128 136 149 151 146 169 123 92 112 115 113 117 138 159 202 231 250 259 254 281 282 53 58 37 17 26 47 45 41 43 35 25
171 181 166 164 159 155 157 155 148 149 159 162 173 181 203 111 75 114 128 148 161 167 175 195 215 226 225 247 226 264 287 358 67 73 41 34 48 43 42 40 43 39 29
181 190 167 167 165 167 145 174 166 170 174 180 172 199 197 110 143 140 153 176 192 197 195 202 195 288 32 22 25 40 0 330 90 71 48 38 39 41 42 38 36 41 40
193 188 176 174 162 183 150 179 170 181 166 151 168 192 129 156 181 189 169 152 182 106 156 32 89 116 98 71 52 61 27 24 105 96 71 65 61 48 39 37 44 42 53
196 189 194 168 162 187 167 180 172 161 157 162 153 171 160 161 162 147 76 134 97 146 140 102 102 63 119 88 32 92 105 57 112 108 95 91 84 71 56 52 50 54 56
195 185 182 169 164 182 188 184 169 149 163 140 162 183 190 130 143 120 158 144 113 98 82 80 45 136 97 130 78 43 40 53 61 121 117 97 93 83 68 57 55 59 54
202 177 174 170 168 178 199 167 165 160 141 158 157 158 160 125 157 155 152 139 122 84 128 150 182 172 127 122 120 132 100 66 51 60 130 121 106 92 85 70 59 58 56
189 167 169 173 169 174 198 171 171 161 159 153 130 157 156 140 158 150 146 120 130 159 160 106 138 141 127 113 108 102 102 105 102 82 58 50 104 116 83 85 74 68 61
187 162 168 172 171 173 197 172 182 152 176 141 143 159 164 154 168 156 128 108 194 128 92 142 38 50 146 128 117 92 107 121 104 95 112 100 60 43 106 94 84 78 75
184 159 163 165 166 168 191 170 177 158 165 148 150 152 162 162 173 125 112 140 177 131 152 44 130 2 73 141 135 119 111 114 113 118 89 86 93 67 53 114 106 87 85
194 155 163 163 164 163 181 182 176 172 163 150 153 140 168 149 152 125 122 165 144 95 95 149 137 139 26 6 120 128 112 106 130 128 98 55 56 93 64 41 42 93 93
162 157 163 167 164 171 175 183 173 169 154 148 119 143 142 154 148 137 139 149 110 101 108 54 7 112 88 30 292 170 155 154 152 132 103 98 26 48 71 64 50 36 62
165 160 162 164 167 174 175 176 160 170 153 139 142 141 140 143 160 110 106 102 109 124 116 104 29 39 145 66 40 46 294 157 132 117 101 96 80 83 23 70 44 61 47
161 152 163 165 166 174 183 182 180 179 173 156 148 142 147 152 128 117 106 110 106 90 102 92 30 22 3 135 79 66 64 58 54 135 105 113 118 105 100 59 42 74 63
164 129 164 169 168 172 182 180 178 176 165 150 151 143 140 132 119 120 116 110 103 91 75 71 57 39 20 66 45 51 70 75 31 66 135 126 107 114 110 118 107 82 61
57 95 139 160 163 170 185 185 171 171 163 154 149 147 144 130 124 122 118 102 96 96 101 98 82 67 60 65 67 40 44 45 50 64 76 76 139 142 129 119 96 86 75